Regional Weather Roundup
Issued by NWS Sioux Falls, SD

Home | Current Version | Previous Version | Graphics & Text | Print | Product List | Glossary Off
Versions: 1 2 3 4 5 6 7 8 9 10 11 12 13 14 15 16 17 18 19 20 21 22 23 24 25 26 27 28 29 30 31 32 33 34 35 36 37 38 39 40 41 42 43 44 45 46 47 48 49 50

000
ASUS43 KFSD 042010
RWRFSD

WEATHER ROUNDUP FOR SE SOUTH DAKOTA/SW MINNESOTA/NW IOWA
NATIONAL WEATHER SERVICE SIOUX FALLS SD
300 PM CDT FRI SEP 04 2015

NOTE: "FAIR" INDICATES FEW OR NO CLOUDS BELOW 12,000 FEET WITH NO
SIGNIFICANT WEATHER AND OR OBSTRUCTIONS TO VISIBILITY.


SDZ038>040-050-052>070-042100-
SOUTHEAST SOUTH DAKOTA

CITY           SKY/WX    TMP DP  RH WIND       PRES   REMARKS
BROOKINGS      CLOUDY   N/A N/A N/A SE17G24   29.85F
CHAMBERLAIN    SUNNY     88  68  52 S7        29.76S
HURON          SUNNY     86  70  58 SE17      29.75F
MADISON        FAIR      77  73  88 SE21G26   29.85S
MITCHELL       SUNNY     91  67  44 S15G28    29.77S
SIOUX FALLS    PTSUNNY   78  70  76 SE12      29.86S
WINNER         FAIR      92  60  34 MISG      29.77S
YANKTON        MOSUNNY   84  72  65 SE14      29.79S
$$

MNZ071-072-080-081-089-090-097-098-042100-
SOUTHWEST MINNESOTA

CITY           SKY/WX    TMP DP  RH WIND       PRES   REMARKS
FAIRMONT       MOSUNNY   84  70  61 S12       29.91S
JACKSON        CLOUDY    82  70  65 S9        29.93R
LUVERNE        CLOUDY    73  70  88 E3        29.90R
MARSHALL       CLOUDY    82  66  57 S16       29.88S
MONTEVIDEO     PTSUNNY   86  72  62 S9        29.87R
PIPESTONE      CLOUDY    73  68  83 S9        29.89F
REDWOOD FALLS  MOSUNNY   87  69  54 S9        29.86F
TRACY          CLOUDY    82  72  72 S7        29.89R
WINDOM         CLOUDY    82  70  65 SE7       29.90F
WORTHINGTON    CLOUDY    77  68  73 SE7       29.91S
$$

IAZ001>003-012>014-020>022-031-032-NEZ013-014-SDZ071-042100-
NORTHWEST IOWA

CITY           SKY/WX    TMP DP  RH WIND       PRES   REMARKS
CHEROKEE       RAIN      80  73  79 SW5       29.90S
DENISON        CLOUDY    81  73  78 CALM      29.90S
ESTHERVILLE    PTSUNNY   82  72  71 SE10      29.92S
LE MARS        CLOUDY    84  72  65 SE13G20   29.88F
ORANGE CITY    CLOUDY    81  72  74 S9        29.89F
SHELDON        CLOUDY    79  72  78 SE12G18   29.88F
SIOUX CITY     PTSUNNY   85  73  67 SE15      29.85F
SPENCER        CLOUDY    82  71  69 S10       29.92R
STORM LAKE     CLOUDY    82  73  74 S10       29.94S
$$

ABBREVIATIONS USED IN REMARKS
   TC - TEMPERATURE IN CELSIUS
  WCI - WIND CHILL INDEX
   HX - HEAT INDEX
  VSB - VISIBILITY



USA.gov is the U.S. government's official web portal to all federal, state and local government web resources and services.